Terminal Aerodrome Forecast
Issued by NWS

Home | Current Version | Previous Version | Text Only | Print | Product List | Glossary On
Versions: 1 2 3 4 5 6 7 8 9 10 11 12
270
FTUS45 KRIW 060520
TAFRKS
TAF
KRKS 060520Z 0606/0706 12008KT P6SM SCT070 BKN120
     FM061400 09011G18KT P6SM VCSH SCT030 BKN060
     FM062000 07016G24KT P6SM VCTS SCT025CB BKN050
     FM070300 07013G21KT 6SM -RA SCT020 BKN035=

USA.gov is the U.S. government's official web portal to all federal, state and local government web resources and services.